When you browse on this site, cookies collect data to enhance your experience and personalize the content and advertising you see.
Visit our Privacy Policy to learn more. By continuing to use the site, you agree to this use of cookies and data.
  • In Deutschland
  • Länderverzeichnis
  • Für 7 Tage
  • Wassertemperatur
  • Wetterkarte
  • Widgets
  • user-avatar
    Anmelden

    Stündliche Wetter Rangpur

    Heute, 22 September, Sonntag

    Zeit Temperatur Niederschläge Wind Luftdruck Luftfeuchtigkeit
    00:00 +30°C° 0 mm 1 m/S 754 mmHg 70%
    01:00 +30°C° 0.1 mm 1 m/S 753 mmHg 71%
    02:00 +30°C° 0.1 mm 1 m/S 753 mmHg 73%
    03:00 +29°C° 0.1 mm 1 m/S 753 mmHg 74%
    04:00 +29°C° 0 mm 1 m/S 753 mmHg 77%
    05:00 +29°C° 0 mm 1 m/S 753 mmHg 78%
    06:00 +29°C° 0 mm 1 m/S 754 mmHg 81%
    07:00 +29°C° 0 mm 1 m/S 754 mmHg 79%
    08:00 +30°C° 0 mm 1 m/S 754 mmHg 78%
    09:00 +31°C° 0 mm 2 m/S 754 mmHg 77%
    10:00 +32°C° 0 mm 2 m/S 754 mmHg 73%
    11:00 +33°C° 0 mm 1 m/S 754 mmHg 69%
    12:00 +34°C° 0 mm 1 m/S 754 mmHg 65%
    13:00 +35°C° 0.2 mm 2 m/S 753 mmHg 64%
    14:00 +35°C° 0.2 mm 2 m/S 752 mmHg 63%
    15:00 +35°C° 0.2 mm 2 m/S 752 mmHg 63%
    16:00 +34°C° 0.7 mm 2 m/S 752 mmHg 66%
    17:00 +32°C° 0.7 mm 1 m/S 752 mmHg 70%
    18:00 +31°C° 0.7 mm 1 m/S 752 mmHg 73%
    19:00 +31°C° 0.9 mm 1 m/S 753 mmHg 76%
    20:00 +30°C° 0.9 mm 1 m/S 753 mmHg 78%
    21:00 +29°C° 0.9 mm 1 m/S 754 mmHg 81%
    22:00 +29°C° 1.4 mm 1 m/S 754 mmHg 82%
    23:00 +29°C° 1.4 mm 1 m/S 754 mmHg 84%

    Morgen, 23 September, Montag

    Zeit Temperatur Niederschläge Wind Luftdruck Luftfeuchtigkeit
    00:00 +29°C° 1.4 mm 1 m/S 754 mmHg 85%
    01:00 +28°C° 1.5 mm 1 m/S 754 mmHg 86%
    02:00 +28°C° 1.5 mm 1 m/S 754 mmHg 87%
    03:00 +28°C° 1.5 mm 1 m/S 754 mmHg 88%
    04:00 +28°C° 1.7 mm 1 m/S 754 mmHg 90%
    05:00 +27°C° 1.7 mm 2 m/S 754 mmHg 91%
    06:00 +27°C° 1.7 mm 2 m/S 754 mmHg 92%
    07:00 +28°C° 0.5 mm 3 m/S 755 mmHg 89%
    08:00 +29°C° 0.5 mm 3 m/S 755 mmHg 86%
    09:00 +29°C° 0.5 mm 3 m/S 755 mmHg 83%
    10:00 +30°C° 2.4 mm 4 m/S 755 mmHg 82%
    11:00 +30°C° 2.4 mm 4 m/S 755 mmHg 81%
    12:00 +30°C° 2.4 mm 5 m/S 755 mmHg 81%
    13:00 +30°C° 0.8 mm 4 m/S 754 mmHg 82%
    14:00 +30°C° 0.8 mm 3 m/S 754 mmHg 84%
    15:00 +29°C° 0.8 mm 2 m/S 753 mmHg 85%
    16:00 +29°C° 0.7 mm 2 m/S 753 mmHg 86%
    17:00 +28°C° 0.7 mm 2 m/S 754 mmHg 88%
    18:00 +28°C° 0.7 mm 2 m/S 754 mmHg 89%
    19:00 +27°C° 0.6 mm 2 m/S 754 mmHg 90%
    20:00 +27°C° 0.6 mm 3 m/S 755 mmHg 90%
    21:00 +27°C° 0.6 mm 3 m/S 756 mmHg 91%
    22:00 +27°C° 0.4 mm 3 m/S 756 mmHg 92%
    23:00 +27°C° 0.4 mm 3 m/S 756 mmHg 92%

    übermorgen, 24 September, Dienstag

    Zeit Temperatur Niederschläge Wind Luftdruck Luftfeuchtigkeit
    00:00 +27°C° 0.4 mm 2 m/S 756 mmHg 93%
    01:00 +26°C° 0.4 mm 2 m/S 755 mmHg 93%
    02:00 +26°C° 0.4 mm 2 m/S 755 mmHg 94%
    03:00 +26°C° 0.4 mm 2 m/S 754 mmHg 94%
    04:00 +26°C° 0.1 mm 1 m/S 755 mmHg 93%
    05:00 +26°C° 0.1 mm 1 m/S 755 mmHg 93%
    06:00 +26°C° 0.1 mm 1 m/S 755 mmHg 92%
    07:00 +26°C° 1.1 mm 1 m/S 756 mmHg 92%
    08:00 +26°C° 1.1 mm 1 m/S 756 mmHg 92%
    09:00 +27°C° 1.1 mm 1 m/S 757 mmHg 92%
    10:00 +27°C° 1.4 mm 2 m/S 757 mmHg 92%
    11:00 +27°C° 1.4 mm 3 m/S 756 mmHg 92%
    12:00 +27°C° 1.4 mm 4 m/S 756 mmHg 92%
    13:00 +27°C° 0.2 mm 4 m/S 756 mmHg 92%
    14:00 +26°C° 0.2 mm 4 m/S 755 mmHg 92%
    15:00 +26°C° 0.2 mm 5 m/S 755 mmHg 93%
    16:00 +26°C° 0 mm 5 m/S 755 mmHg 93%
    17:00 +26°C° 0 mm 5 m/S 755 mmHg 93%
    18:00 +26°C° 0 mm 5 m/S 755 mmHg 93%
    19:00 +26°C° 0.2 mm 4 m/S 756 mmHg 93%
    20:00 +26°C° 0.2 mm 4 m/S 757 mmHg 93%
    21:00 +26°C° 0.2 mm 3 m/S 757 mmHg 93%
    22:00 +26°C° 0.8 mm 3 m/S 757 mmHg 94%
    23:00 +26°C° 0.8 mm 3 m/S 757 mmHg 94%

    25 September, Mittwoch

    Zeit Temperatur Niederschläge Wind Luftdruck Luftfeuchtigkeit
    00:00 +26°C° 0.8 mm 3 m/S 757 mmHg 95%
    01:00 +25°C° 0.6 mm 3 m/S 757 mmHg 95%
    02:00 +25°C° 0.6 mm 3 m/S 757 mmHg 96%
    03:00 +25°C° 0.6 mm 3 m/S 757 mmHg 96%
    04:00 +25°C° 0.3 mm 3 m/S 757 mmHg 96%
    05:00 +25°C° 0.3 mm 2 m/S 757 mmHg 96%
    06:00 +25°C° 0.3 mm 2 m/S 757 mmHg 96%
    07:00 +26°C° 0.2 mm 2 m/S 758 mmHg 94%
    08:00 +26°C° 0.2 mm 3 m/S 758 mmHg 92%
    09:00 +27°C° 0.2 mm 3 m/S 759 mmHg 90%
    10:00 +27°C° 0.8 mm 3 m/S 758 mmHg 89%
    11:00 +28°C° 0.8 mm 3 m/S 758 mmHg 87%
    12:00 +28°C° 0.8 mm 4 m/S 758 mmHg 85%
    13:00 +29°C° 1.2 mm 4 m/S 757 mmHg 84%
    14:00 +29°C° 1.2 mm 4 m/S 757 mmHg 84%
    15:00 +29°C° 1.2 mm 4 m/S 756 mmHg 83%
    16:00 +28°C° 0.2 mm 4 m/S 757 mmHg 86%
    17:00 +27°C° 0.2 mm 3 m/S 757 mmHg 88%
    18:00 +27°C° 0.2 mm 3 m/S 757 mmHg 91%
    19:00 +26°C° 0 mm 2 m/S 758 mmHg 92%
    20:00 +26°C° 0 mm 2 m/S 758 mmHg 93%
    21:00 +26°C° 0 mm 2 m/S 759 mmHg 94%
    22:00 +25°C° 0 mm 2 m/S 759 mmHg 94%
    23:00 +25°C° 0 mm 2 m/S 759 mmHg 95%

    26 September, Donnerstag

    Zeit Temperatur Niederschläge Wind Luftdruck Luftfeuchtigkeit
    00:00 +25°C° 0 mm 2 m/S 759 mmHg 95%
    01:00 +25°C° 0 mm 1 m/S 759 mmHg 95%
    02:00 +25°C° 0 mm 1 m/S 758 mmHg 95%
    03:00 +25°C° 0 mm 1 m/S 758 mmHg 95%
    04:00 +25°C° 0 mm 1 m/S 758 mmHg 95%
    05:00 +24°C° 0 mm 1 m/S 758 mmHg 95%
    06:00 +24°C° 0 mm 1 m/S 758 mmHg 95%
    07:00 +26°C° 0 mm 1 m/S 758 mmHg 91%
    08:00 +27°C° 0 mm 1 m/S 759 mmHg 86%
    09:00 +28°C° 0 mm 2 m/S 759 mmHg 82%
    10:00 +29°C° 0.1 mm 1 m/S 759 mmHg 77%
    11:00 +30°C° 0.1 mm 1 m/S 758 mmHg 72%
    12:00 +32°C° 0.1 mm 1 m/S 758 mmHg 68%
    13:00 +32°C° 0.1 mm 1 m/S 757 mmHg 68%
    14:00 +32°C° 0.1 mm 1 m/S 756 mmHg 68%
    15:00 +32°C° 0.1 mm 1 m/S 755 mmHg 67%
    16:00 +31°C° 0.2 mm 1 m/S 755 mmHg 71%
    17:00 +30°C° 0.2 mm 1 m/S 755 mmHg 76%
    18:00 +29°C° 0.2 mm 1 m/S 756 mmHg 80%
    19:00 +28°C° 0.4 mm 2 m/S 756 mmHg 82%
    20:00 +28°C° 0.4 mm 2 m/S 757 mmHg 85%
    21:00 +27°C° 0.4 mm 2 m/S 757 mmHg 88%
    22:00 +27°C° 0.3 mm 2 m/S 757 mmHg 89%
    23:00 +27°C° 0.3 mm 2 m/S 757 mmHg 90%

    27 September, Freitag

    Zeit Temperatur Niederschläge Wind Luftdruck Luftfeuchtigkeit
    00:00 +27°C° 0.3 mm 2 m/S 757 mmHg 91%
    01:00 +26°C° 0 mm 2 m/S 757 mmHg 92%
    02:00 +26°C° 0 mm 1 m/S 757 mmHg 92%
    03:00 +26°C° 0 mm 1 m/S 756 mmHg 92%
    04:00 +26°C° 0 mm 1 m/S 756 mmHg 93%
    05:00 +24°C° 0 mm 0 m/S 756 mmHg 93%
    06:00 +24°C° 0 mm 0 m/S 756 mmHg 93%
    07:00 +25°C° 0 mm 0 m/S 757 mmHg 88%
    08:00 +26°C° 0 mm 0 m/S 757 mmHg 82%
    09:00 +30°C° 0 mm 1 m/S 757 mmHg 77%
    10:00 +31°C° 0 mm 1 m/S 757 mmHg 73%
    11:00 +32°C° 0 mm 1 m/S 756 mmHg 69%
    12:00 +33°C° 0 mm 1 m/S 756 mmHg 65%
    13:00 +33°C° 0 mm 1 m/S 755 mmHg 64%
    14:00 +33°C° 0 mm 1 m/S 754 mmHg 64%
    15:00 +33°C° 0 mm 1 m/S 753 mmHg 63%
    16:00 +32°C° 0.1 mm 1 m/S 753 mmHg 67%
    17:00 +31°C° 0.1 mm 1 m/S 753 mmHg 71%
    18:00 +30°C° 0.1 mm 1 m/S 753 mmHg 75%
    19:00 +30°C° 0.1 mm 1 m/S 754 mmHg 76%
    20:00 +27°C° 0.1 mm 0 m/S 754 mmHg 77%
    21:00 +27°C° 0.1 mm 0 m/S 754 mmHg 79%
    22:00 +29°C° 0 mm 1 m/S 754 mmHg 80%
    23:00 +28°C° 0 mm 1 m/S 754 mmHg 81%
    Mehr zeigen